Main page
METAR-TAF:

METAR-TAF

Airports :

Oil platform

Euro, Netherlands

latitude: 51-59-52N, longitude: 3-16-30E, elevation: 18 m

Current weather observation

The report was made 15 minutes ago, at 04:25 UTC
Wind 4 kt from the South/Southeast
Temperature 18°C
Humidity 88%
Pressure 1014 hPa

METAR: EHSA 220425Z AUTO 15004KT //// // ///////// 18/16 Q1014 RE// W18/H4

Time: 06:40 (04:40 UTC)


TAF: missing

Weather observations and forecasts of more than 4000 airports (METAR and TAF reports).

The available stations are represented by yellow and red dots on the map.

Hover mouse over dot to see the name of the station.

Then click to see weather observations and forecasts.

To change the map : click on the green buttons with a black cross to zoom in, on the green button with a dash to zoom out, or on the green arrows for adjacent maps.


METAR-TAF: